| time (UTC) | temp F | wind direction | speed MPH | gust MPH | rain 1hr in | rain 24hr in | rain mn in | humidity % | barometer mb |
| 20260507233807 | 83 | 123 | 3.0 | 11.0 | 0.00 | 0.00 | 0.00 | 1 | 1015.2 |
| 20260507233306 | 83 | 259 | 3.0 | 11.0 | 0.00 | 0.00 | 0.00 | 1 | 1015.2 |
| 20260507232809 | 83 | 290 | 2.0 | 6.0 | 0.00 | 0.00 | 0.00 | 1 | 1015.3 |
| 20260507231808 | 83 | 300 | 4.0 | 11.0 | 0.00 | 0.00 | 0.00 | 1 | 1015.4 |
| 20260507231306 | 83 | 359 | 2.0 | 11.0 | 0.00 | 0.00 | 0.00 | 1 | 1015.4 |
| 20260507230807 | 83 | 295 | 1.0 | 9.0 | 0.00 | 0.00 | 0.00 | 1 | 1015.3 |
| 20260507230309 | 82 | 73 | 4.0 | 10.0 | 0.00 | 0.00 | 0.00 | 1 | 1015.4 |
| 20260507225306 | 82 | 314 | 4.0 | 11.0 | 0.00 | 0.00 | 0.00 | 1 | 1015.6 |
| 20260507224801 | 81 | 291 | 4.0 | 9.0 | 0.00 | 0.00 | 0.00 | 1 | 1015.6 |
| 20260507223746 | 82 | 239 | 4.0 | 9.0 | 0.00 | 0.00 | 0.00 | 1 | 1015.7 |
| 20260507223240 | 83 | 287 | 3.0 | 10.0 | 0.00 | 0.00 | 0.00 | 1 | 1015.7 |
| 20260507222737 | 83 | 257 | 4.0 | 10.0 | 0.00 | 0.00 | 0.00 | 1 | 1015.8 |
| 20260507221726 | 83 | 307 | 4.0 | 10.0 | 0.00 | 0.00 | 0.00 | 1 | 1016.0 |
| 20260507221217 | 82 | 268 | 5.0 | 11.0 | 0.00 | 0.00 | 0.00 | 1 | 1016.0 |
| 20260507220711 | 82 | 308 | 4.0 | 11.0 | 0.00 | 0.00 | 0.00 | 1 | 1016.0 |
| 20260507215701 | 82 | 352 | 4.0 | 7.0 | 0.00 | 0.00 | 0.00 | 1 | 1016.1 |
| 20260507214648 | 82 | 32 | 4.0 | 11.0 | 0.00 | 0.00 | 0.00 | 1 | 1016.2 |
| 20260507214153 | 82 | 73 | 3.0 | 8.0 | 0.00 | 0.00 | 0.00 | 1 | 1016.4 |
| 20260507213648 | 82 | 304 | 4.0 | 9.0 | 0.00 | 0.00 | 0.00 | 1 | 1016.4 |
| 20260507213147 | 82 | 310 | 5.0 | 10.0 | 0.00 | 0.00 | 0.00 | 1 | 1016.6 |
| 20260507212653 | 81 | 305 | 4.0 | 10.0 | 0.00 | 0.00 | 0.00 | 1 | 1016.6 |
| 20260507212148 | 81 | 348 | 4.0 | 10.0 | 0.00 | 0.00 | 0.00 | 1 | 1016.7 |
| 20260507211651 | 81 | 326 | 4.0 | 11.0 | 0.00 | 0.00 | 0.00 | 1 | 1016.8 |
| 20260507211154 | 81 | 283 | 5.0 | 11.0 | 0.00 | 0.00 | 0.00 | 1 | 1016.8 |
| 20260507210651 | 82 | 344 | 4.0 | 10.0 | 0.00 | 0.00 | 0.00 | 1 | 1016.9 |
| 20260507210154 | 82 | 295 | 2.0 | 10.0 | 0.00 | 0.00 | 0.00 | 1 | 1017.0 |
| 20260507205655 | 83 | 77 | 1.0 | 7.0 | 0.00 | 0.00 | 0.00 | 1 | 1017.0 |
| 20260507205152 | 81 | 311 | 3.0 | 10.0 | 0.00 | 0.00 | 0.00 | 1 | 1017.0 |
| 20260507203149 | 80 | 342 | 5.0 | 12.0 | 0.00 | 0.00 | 0.00 | 1 | 1017.6 |
| 20260507202648 | 80 | 292 | 4.0 | 12.0 | 0.00 | 0.00 | 0.00 | 1 | 1017.5 |
| 20260507202148 | 80 | 336 | 4.0 | 10.0 | 0.00 | 0.00 | 0.00 | 1 | 1017.5 |
| 20260507201650 | 80 | 300 | 4.0 | 10.0 | 0.00 | 0.00 | 0.00 | 1 | 1017.5 |
| 20260507201150 | 80 | 33 | 5.0 | 11.0 | 0.00 | 0.00 | 0.00 | 1 | 1017.6 |
| 20260507200148 | 80 | 5 | 3.0 | 8.0 | 0.00 | 0.00 | 0.00 | 1 | 1017.7 |
| 20260507195649 | 80 | 86 | 2.0 | 7.0 | 0.00 | 0.00 | 0.00 | 1 | 1017.8 |
| 20260507195148 | 80 | 31 | 2.0 | 7.0 | 0.00 | 0.00 | 0.00 | 1 | 1018.0 |
| 20260507194652 | 80 | 50 | 2.0 | 6.0 | 0.00 | 0.00 | 0.00 | 2 | 1018.0 |
| 20260507194148 | 79 | 231 | 3.0 | 11.0 | 0.00 | 0.00 | 0.00 | 2 | 1018.0 |
| 20260507193647 | 78 | 298 | 4.0 | 11.0 | 0.00 | 0.00 | 0.00 | 2 | 1018.2 |
| 20260507193146 | 78 | 271 | 4.0 | 10.0 | 0.00 | 0.00 | 0.00 | 3 | 1018.2 |
| 20260507192146 | 78 | 56 | 4.0 | 11.0 | 0.00 | 0.00 | 0.00 | 2 | 1018.3 |
| 20260507191646 | 79 | 319 | 3.0 | 11.0 | 0.00 | 0.00 | 0.00 | 2 | 1018.4 |
| 20260507191147 | 79 | 127 | 3.0 | 9.0 | 0.00 | 0.00 | 0.00 | 2 | 1018.4 |
| 20260507190646 | 78 | 340 | 3.0 | 9.0 | 0.00 | 0.00 | 0.00 | 2 | 1018.5 |
| 20260507190146 | 78 | 42 | 3.0 | 8.0 | 0.00 | 0.00 | 0.00 | 2 | 1018.6 |
| 20260507185645 | 78 | 316 | 3.0 | 8.0 | 0.00 | 0.00 | 0.00 | 3 | 1018.8 |
| 20260507185147 | 77 | 298 | 4.0 | 12.0 | 0.00 | 0.00 | 0.00 | 3 | 1018.8 |
| 20260507184645 | 77 | 304 | 4.0 | 13.0 | 0.00 | 0.00 | 0.00 | 3 | 1018.8 |
| 20260507184145 | 78 | 335 | 5.0 | 13.0 | 0.00 | 0.00 | 0.00 | 3 | 1018.8 |
| 20260507183646 | 78 | 326 | 3.0 | 9.0 | 0.00 | 0.00 | 0.00 | 3 | 1018.8 |
| 20260507183149 | 78 | 270 | 4.0 | 7.0 | 0.00 | 0.00 | 0.00 | 4 | 1018.8 |
| 20260507182643 | 77 | 33 | 4.0 | 16.0 | 0.00 | 0.00 | 0.00 | 5 | 1018.8 |
| 20260507181632 | 76 | 84 | 3.0 | 8.0 | 0.00 | 0.00 | 0.00 | 5 | 1018.9 |
| 20260507181129 | 76 | 77 | 3.0 | 8.0 | 0.00 | 0.00 | 0.00 | 5 | 1018.9 |
| 20260507180619 | 77 | 132 | 3.0 | 11.0 | 0.00 | 0.00 | 0.00 | 5 | 1019.0 |
| 20260507180115 | 76 | 91 | 3.0 | 11.0 | 0.00 | 0.00 | 0.00 | 5 | 1019.0 |
| 20260507175608 | 76 | 139 | 2.0 | 7.0 | 0.00 | 0.00 | 0.00 | 5 | 1019.1 |
| 20260507175101 | 76 | 80 | 2.0 | 7.0 | 0.00 | 0.00 | 0.00 | 4 | 1019.2 |
| 20260507174554 | 76 | 237 | 2.0 | 6.0 | 0.00 | 0.00 | 0.00 | 5 | 1019.2 |
| 20260507174047 | 75 | 231 | 3.0 | 7.0 | 0.00 | 0.00 | 0.00 | 6 | 1019.3 |
| 20260507173546 | 75 | 88 | 3.0 | 7.0 | 0.00 | 0.00 | 0.00 | 6 | 1019.3 |
| 20260507173046 | 75 | 41 | 3.0 | 7.0 | 0.00 | 0.00 | 0.00 | 6 | 1019.2 |
| 20260507172546 | 74 | 101 | 4.0 | 9.0 | 0.00 | 0.00 | 0.00 | 7 | 1019.2 |
| 20260507172047 | 74 | 11 | 4.0 | 9.0 | 0.00 | 0.00 | 0.00 | 6 | 1019.3 |
| 20260507171545 | 74 | 354 | 3.0 | 8.0 | 0.00 | 0.00 | 0.00 | 8 | 1019.2 |
| 20260507170550 | 74 | 27 | 3.0 | 7.0 | 0.00 | 0.00 | 0.00 | 9 | 1019.3 |
| 20260507165546 | 73 | 293 | 2.0 | 5.0 | 0.00 | 0.00 | 0.00 | 10 | 1019.4 |
| 20260507165049 | 73 | 19 | 2.0 | 5.0 | 0.00 | 0.00 | 0.00 | 10 | 1019.4 |
| 20260507164546 | 73 | 309 | 1.0 | 5.0 | 0.00 | 0.00 | 0.00 | 10 | 1019.4 |
| 20260507164047 | 72 | 349 | 1.0 | 5.0 | 0.00 | 0.00 | 0.00 | 10 | 1019.4 |
| 20260507163543 | 71 | 342 | 3.0 | 8.0 | 0.00 | 0.00 | 0.00 | 11 | 1019.4 |
| 20260507163042 | 71 | 320 | 3.0 | 8.0 | 0.00 | 0.00 | 0.00 | 11 | 1019.6 |
| 20260507162541 | 71 | 8 | 2.0 | 4.0 | 0.00 | 0.00 | 0.00 | 11 | 1019.4 |
| 20260507162043 | 70 | 113 | 2.0 | 5.0 | 0.00 | 0.00 | 0.00 | 11 | 1019.7 |
| 20260507161541 | 70 | 13 | 3.0 | 5.0 | 0.00 | 0.00 | 0.00 | 11 | 1019.8 |
| 20260507161036 | 70 | 22 | 3.0 | 7.0 | 0.00 | 0.00 | 0.00 | 11 | 1019.7 |
| 20260507160531 | 70 | 347 | 2.0 | 7.0 | 0.00 | 0.00 | 0.00 | 11 | 1019.8 |
| 20260507160022 | 70 | 32 | 2.0 | 5.0 | 0.00 | 0.00 | 0.00 | 11 | 1019.8 |
| 20260507155514 | 70 | 337 | 2.0 | 6.0 | 0.00 | 0.00 | 0.00 | 11 | 1019.9 |
| 20260507155011 | 69 | 37 | 2.0 | 6.0 | 0.00 | 0.00 | 0.00 | 12 | 1019.9 |
| 20260507154509 | 69 | 73 | 2.0 | 8.0 | 0.00 | 0.00 | 0.00 | 12 | 1020.0 |
| 20260507153959 | 68 | 79 | 3.0 | 8.0 | 0.00 | 0.00 | 0.00 | 12 | 1020.0 |
| 20260507152947 | 68 | 98 | 3.0 | 7.0 | 0.00 | 0.00 | 0.00 | 11 | 1020.0 |
| 20260507151935 | 67 | 105 | 2.0 | 7.0 | 0.00 | 0.00 | 0.00 | 10 | 1020.0 |
| 20260507151429 | 67 | 77 | 2.0 | 6.0 | 0.00 | 0.00 | 0.00 | 9 | 1020.0 |
| 20260507150923 | 67 | 320 | 2.0 | 6.0 | 0.00 | 0.00 | 0.00 | 10 | 1020.0 |
| 20260507150417 | 67 | 352 | 1.0 | 5.0 | 0.00 | 0.00 | 0.00 | 10 | 1020.1 |
| 20260507145910 | 67 | 84 | 1.0 | 4.0 | 0.00 | 0.00 | 0.00 | 9 | 1020.1 |
| 20260507145405 | 66 | 326 | 1.0 | 6.0 | 0.00 | 0.00 | 0.00 | 9 | 1020.1 |
| 20260507144859 | 66 | 18 | 1.0 | 6.0 | 0.00 | 0.00 | 0.00 | 9 | 1020.1 |
| 20260507144353 | 66 | 16 | 1.0 | 4.0 | 0.00 | 0.00 | 0.00 | 9 | 1020.1 |
| 20260507143846 | 65 | 59 | 0.0 | 2.0 | 0.00 | 0.00 | 0.00 | 9 | 1020.1 |
| 20260507142835 | 64 | 94 | 1.0 | 6.0 | 0.00 | 0.00 | 0.00 | 10 | 1020.2 |
| 20260507142329 | 64 | 172 | 1.0 | 4.0 | 0.00 | 0.00 | 0.00 | 10 | 1020.1 |
| 20260507141822 | 64 | 70 | 1.0 | 3.0 | 0.00 | 0.00 | 0.00 | 10 | 1020.1 |
| 20260507141316 | 64 | 89 | 1.0 | 3.0 | 0.00 | 0.00 | 0.00 | 10 | 1020.1 |
| 20260507140811 | 64 | 88 | 0.0 | 2.0 | 0.00 | 0.00 | 0.00 | 10 | 1020.1 |
| 20260507140304 | 63 | 97 | 0.0 | 3.0 | 0.00 | 0.00 | 0.00 | 11 | 1020.0 |
| 20260507135252 | 62 | 89 | 1.0 | 5.0 | 0.00 | 0.00 | 0.00 | 11 | 1020.1 |
| 20260507134746 | 62 | 103 | 0.0 | 4.0 | 0.00 | 0.00 | 0.00 | 11 | 1020.0 |
| 20260507133735 | 61 | 109 | 0.0 | 1.0 | 0.00 | 0.00 | 0.00 | 11 | 1019.9 |
| 20260507133229 | 60 | 174 | 0.0 | 1.0 | 0.00 | 0.00 | 0.00 | 12 | 1019.9 |
| 20260507132722 | 59 | 160 | 0.0 | 2.0 | 0.00 | 0.00 | 0.00 | 12 | 1019.9 |
| 20260507132218 | 58 | 95 | 0.0 | 2.0 | 0.00 | 0.00 | 0.00 | 13 | 1019.8 |
| 20260507131712 | 56 | 205 | 0.0 | 1.0 | 0.00 | 0.00 | 0.00 | 15 | 1019.7 |
| 20260507131204 | 55 | 176 | 0.0 | 1.0 | 0.00 | 0.00 | 0.00 | 15 | 1019.6 |
| 20260507130154 | 55 | 176 | 0.0 | 2.0 | 0.00 | 0.00 | 0.00 | 15 | 1019.6 |
| 20260507125647 | 54 | 177 | 0.0 | 1.0 | 0.00 | 0.00 | 0.00 | 15 | 1019.6 |
| 20260507125141 | 53 | 141 | 0.0 | 2.0 | 0.00 | 0.00 | 0.00 | 16 | 1019.4 |
| 20260507124130 | 52 | 153 | 1.0 | 3.0 | 0.00 | 0.00 | 0.00 | 17 | 1019.4 |
| 20260507123623 | 50 | 116 | 0.0 | 3.0 | 0.00 | 0.00 | 0.00 | 18 | 1019.4 |
| 20260507123119 | 50 | 206 | 0.0 | 1.0 | 0.00 | 0.00 | 0.00 | 18 | 1019.4 |
| 20260507122611 | 50 | 194 | 0.0 | 1.0 | 0.00 | 0.00 | 0.00 | 18 | 1019.3 |
| 20260507121052 | 51 | 204 | 0.0 | 1.0 | 0.00 | 0.00 | 0.00 | 18 | 1019.4 |
| 20260507120546 | 51 | 207 | 0.0 | 1.0 | 0.00 | 0.00 | 0.00 | 18 | 1019.4 |
| 20260507120044 | 50 | 215 | 0.0 | 2.0 | 0.00 | 0.00 | 0.00 | 19 | 1019.3 |
| 20260507115541 | 50 | 215 | 0.0 | 2.0 | 0.00 | 0.00 | 0.00 | 19 | 1019.4 |
| 20260507114537 | 50 | 202 | 0.0 | 1.0 | 0.00 | 0.00 | 0.00 | 19 | 1019.4 |
| 20260507114045 | 51 | 183 | 0.0 | 1.0 | 0.00 | 0.00 | 0.00 | 18 | 1019.4 |
| 20260507113536 | 51 | 163 | 0.0 | 1.0 | 0.00 | 0.00 | 0.00 | 18 | 1019.3 |
| 20260507112535 | 52 | 120 | 0.0 | 2.0 | 0.00 | 0.00 | 0.00 | 17 | 1019.3 |
| 20260507111029 | 53 | 101 | 1.0 | 3.0 | 0.00 | 0.00 | 0.00 | 16 | 1019.3 |
| 20260507105025 | 54 | 162 | 1.0 | 2.0 | 0.00 | 0.00 | 0.00 | 16 | 1019.2 |
| 20260507104527 | 56 | 161 | 1.0 | 2.0 | 0.00 | 0.00 | 0.00 | 15 | 1019.3 |
| 20260507104029 | 57 | 174 | 1.0 | 2.0 | 0.00 | 0.00 | 0.00 | 15 | 1019.3 |
| 20260507103522 | 57 | 186 | 1.0 | 3.0 | 0.00 | 0.00 | 0.00 | 14 | 1019.4 |
| 20260507103020 | 57 | 169 | 2.0 | 3.0 | 0.00 | 0.00 | 0.00 | 14 | 1019.4 |
| 20260507102021 | 58 | 160 | 1.0 | 6.0 | 0.00 | 0.00 | 0.00 | 14 | 1019.4 |
| 20260507101522 | 58 | 169 | 1.0 | 6.0 | 0.00 | 0.00 | 0.00 | 13 | 1019.6 |
| 20260507101021 | 58 | 141 | 1.0 | 3.0 | 0.00 | 0.00 | 0.00 | 13 | 1019.6 |
| 20260507100522 | 58 | 157 | 1.0 | 3.0 | 0.00 | 0.00 | 0.00 | 13 | 1019.4 |
| 20260507100022 | 57 | 193 | 0.0 | 3.0 | 0.00 | 0.00 | 0.00 | 13 | 1019.4 |
| 20260507095523 | 57 | 176 | 0.0 | 2.0 | 0.00 | 0.00 | 0.00 | 13 | 1019.4 |
| 20260507094517 | 59 | 158 | 1.0 | 2.0 | 0.00 | 0.00 | 0.00 | 12 | 1019.4 |
| 20260507094017 | 59 | 192 | 1.0 | 2.0 | 0.00 | 0.00 | 0.00 | 12 | 1019.3 |
| 20260507093517 | 59 | 179 | 1.0 | 2.0 | 0.00 | 0.00 | 0.00 | 12 | 1019.2 |
| 20260507093017 | 59 | 184 | 1.0 | 3.0 | 0.00 | 0.00 | 0.00 | 12 | 1019.3 |
| 20260507092517 | 60 | 169 | 1.0 | 3.0 | 0.00 | 0.00 | 0.00 | 13 | 1019.2 |
| 20260507092018 | 60 | 195 | 2.0 | 3.0 | 0.00 | 0.00 | 0.00 | 12 | 1019.3 |
| 20260507091517 | 60 | 167 | 1.0 | 3.0 | 0.00 | 0.00 | 0.00 | 13 | 1019.3 |
| 20260507091018 | 59 | 162 | 1.0 | 3.0 | 0.00 | 0.00 | 0.00 | 14 | 1019.2 |
| 20260507085516 | 59 | 155 | 1.0 | 3.0 | 0.00 | 0.00 | 0.00 | 12 | 1019.3 |
| 20260507085018 | 58 | 162 | 1.0 | 2.0 | 0.00 | 0.00 | 0.00 | 13 | 1019.3 |
| 20260507084519 | 57 | 172 | 0.0 | 3.0 | 0.00 | 0.00 | 0.00 | 16 | 1019.3 |
| 20260507084017 | 58 | 171 | 1.0 | 3.0 | 0.00 | 0.00 | 0.00 | 16 | 1019.4 |
| 20260507083518 | 57 | 174 | 1.0 | 3.0 | 0.00 | 0.00 | 0.00 | 17 | 1019.4 |
| 20260507083016 | 57 | 170 | 1.0 | 3.0 | 0.00 | 0.00 | 0.00 | 18 | 1019.4 |
| 20260507082516 | 56 | 172 | 1.0 | 3.0 | 0.00 | 0.00 | 0.00 | 17 | 1019.4 |
| 20260507081515 | 57 | 179 | 1.0 | 2.0 | 0.00 | 0.00 | 0.00 | 16 | 1019.3 |
| 20260507081013 | 56 | 176 | 1.0 | 2.0 | 0.00 | 0.00 | 0.00 | 16 | 1019.3 |
| 20260507080515 | 56 | 205 | 0.0 | 1.0 | 0.00 | 0.00 | 0.00 | 17 | 1019.4 |
| 20260507075515 | 57 | 174 | 1.0 | 2.0 | 0.00 | 0.00 | 0.00 | 16 | 1019.2 |
| 20260507075008 | 57 | 180 | 0.0 | 2.0 | 0.00 | 0.00 | 0.00 | 16 | 1019.3 |
| 20260507074508 | 58 | 173 | 0.0 | 1.0 | 0.00 | 0.00 | 0.00 | 16 | 1019.3 |
| 20260507074006 | 58 | 169 | 0.0 | 1.0 | 0.00 | 0.00 | 0.00 | 16 | 1019.3 |
| 20260507073509 | 58 | 167 | 0.0 | 2.0 | 0.00 | 0.00 | 0.00 | 16 | 1019.2 |
| 20260507072503 | 58 | 169 | 1.0 | 2.0 | 0.00 | 0.00 | 0.00 | 17 | 1019.2 |
| 20260507072007 | 58 | 178 | 1.0 | 2.0 | 0.00 | 0.00 | 0.00 | 17 | 1019.2 |
| 20260507071501 | 58 | 189 | 1.0 | 2.0 | 0.00 | 0.00 | 0.00 | 17 | 1019.2 |
| 20260507070455 | 58 | 194 | 1.0 | 2.0 | 0.00 | 0.00 | 0.00 | 18 | 1019.2 |
| 20260507065954 | 59 | 195 | 0.0 | 2.0 | 0.00 | 0.00 | 0.00 | 18 | 1019.2 |
| 20260507065450 | 59 | 193 | 0.0 | 2.0 | 0.00 | 0.00 | 0.00 | 18 | 1019.2 |
| 20260507064954 | 60 | 179 | 0.0 | 0.0 | 0.00 | 0.00 | 0.00 | 17 | 1019.2 |
| 20260507064447 | 61 | 179 | 0.0 | 0.0 | 0.00 | 0.00 | 0.00 | 17 | 1019.1 |
| 20260507063946 | 62 | 164 | 0.0 | 0.0 | 0.00 | 0.00 | 0.00 | 16 | 1019.0 |
| 20260507062947 | 64 | 257 | 0.0 | 3.0 | 0.00 | 0.00 | 0.00 | 16 | 1019.0 |
| 20260507061948 | 63 | 275 | 0.0 | 2.0 | 0.00 | 0.00 | 0.00 | 18 | 1018.8 |
| 20260507061446 | 63 | 235 | 0.0 | 4.0 | 0.00 | 0.00 | 0.00 | 19 | 1018.8 |
| 20260507060947 | 64 | 276 | 1.0 | 4.0 | 0.00 | 0.00 | 0.00 | 19 | 1018.8 |
| 20260507060446 | 63 | 249 | 1.0 | 4.0 | 0.00 | 0.00 | 0.00 | 19 | 1018.8 |
| 20260507055943 | 63 | 264 | 0.0 | 3.0 | 0.00 | 0.00 | 0.00 | 19 | 1018.8 |
| 20260507055450 | 64 | 271 | 0.0 | 3.0 | 0.00 | 0.00 | 0.00 | 20 | 1018.6 |
| 20260507054949 | 63 | 294 | 1.0 | 2.0 | 0.00 | 0.00 | 0.00 | 20 | 1018.8 |
| 20260507054443 | 63 | 231 | 1.0 | 2.0 | 0.00 | 0.00 | 0.00 | 20 | 1018.6 |
| 20260507053441 | 63 | 274 | 0.0 | 2.0 | 0.00 | 0.00 | 0.00 | 21 | 1018.6 |
| 20260507052941 | 63 | 252 | 0.0 | 2.0 | 0.00 | 0.00 | 0.00 | 21 | 1018.6 |
| 20260507051944 | 64 | 221 | 0.0 | 1.0 | 0.00 | 0.00 | 0.00 | 21 | 1018.5 |
| 20260507050930 | 64 | 288 | 0.0 | 2.0 | 0.00 | 0.00 | 0.00 | 20 | 1018.5 |
| 20260507050423 | 65 | 217 | 0.0 | 2.0 | 0.00 | 0.00 | 0.00 | 20 | 1018.5 |
| 20260507045918 | 65 | 285 | 0.0 | 3.0 | 0.00 | 0.00 | 0.00 | 19 | 1018.4 |
| 20260507044906 | 66 | 294 | 1.0 | 4.0 | 0.00 | 0.00 | 0.00 | 19 | 1018.4 |
| 20260507044400 | 66 | 249 | 1.0 | 4.0 | 0.00 | 0.00 | 0.00 | 19 | 1018.3 |
| 20260507043853 | 66 | 274 | 1.0 | 4.0 | 0.00 | 0.00 | 0.00 | 19 | 1018.3 |
| 20260507043347 | 66 | 266 | 1.0 | 4.0 | 0.00 | 0.00 | 0.00 | 19 | 1018.2 |
| 20260507042842 | 67 | 304 | 1.0 | 4.0 | 0.00 | 0.00 | 0.00 | 19 | 1018.1 |
| 20260507041829 | 67 | 290 | 1.0 | 8.0 | 0.00 | 0.00 | 0.00 | 18 | 1018.1 |
| 20260507041324 | 67 | 313 | 1.0 | 8.0 | 0.00 | 0.00 | 0.00 | 18 | 1018.0 |
| 20260507040818 | 67 | 315 | 1.0 | 7.0 | 0.00 | 0.00 | 0.00 | 18 | 1018.0 |
| 20260507040312 | 67 | 282 | 1.0 | 6.0 | 0.00 | 0.00 | 0.00 | 18 | 1018.0 |
| 20260507035805 | 67 | 313 | 1.0 | 6.0 | 0.00 | 0.00 | 0.00 | 18 | 1017.8 |
| 20260507035305 | 67 | 286 | 1.0 | 4.0 | 0.00 | 0.00 | 0.00 | 18 | 1017.8 |
| 20260507034754 | 67 | 269 | 1.0 | 6.0 | 0.00 | 0.00 | 0.00 | 18 | 1017.8 |
| 20260507034247 | 67 | 283 | 1.0 | 6.0 | 0.00 | 0.00 | 0.00 | 18 | 1017.7 |
| 20260507033744 | 67 | 275 | 1.0 | 6.0 | 0.00 | 0.00 | 0.00 | 18 | 1017.6 |
| 20260507032224 | 67 | 299 | 2.0 | 8.0 | 0.00 | 0.00 | 0.00 | 17 | 1017.4 |
| 20260507031720 | 68 | 319 | 4.0 | 9.0 | 0.00 | 0.00 | 0.00 | 17 | 1017.4 |
| 20260507031213 | 68 | 277 | 5.0 | 13.0 | 0.00 | 0.00 | 0.00 | 17 | 1017.3 |
| 20260507030705 | 68 | 263 | 5.0 | 13.0 | 0.00 | 0.00 | 0.00 | 17 | 1017.3 |
| 20260507030159 | 68 | 262 | 5.0 | 12.0 | 0.00 | 0.00 | 0.00 | 17 | 1017.2 |
| 20260507025655 | 68 | 283 | 4.0 | 12.0 | 0.00 | 0.00 | 0.00 | 17 | 1017.0 |
| 20260507025148 | 68 | 283 | 4.0 | 9.0 | 0.00 | 0.00 | 0.00 | 17 | 1017.0 |
| 20260507024649 | 68 | 288 | 4.0 | 9.0 | 0.00 | 0.00 | 0.00 | 17 | 1016.9 |
| 20260507024148 | 69 | 288 | 5.0 | 14.0 | 0.00 | 0.00 | 0.00 | 17 | 1016.9 |
| 20260507023650 | 69 | 277 | 5.0 | 14.0 | 0.00 | 0.00 | 0.00 | 16 | 1016.9 |
| 20260507022647 | 69 | 317 | 6.0 | 13.0 | 0.00 | 0.00 | 0.00 | 16 | 1016.8 |
| 20260507022148 | 69 | 289 | 6.0 | 15.0 | 0.00 | 0.00 | 0.00 | 16 | 1016.8 |
| 20260507021647 | 69 | 260 | 6.0 | 15.0 | 0.00 | 0.00 | 0.00 | 16 | 1016.8 |
| 20260507021147 | 69 | 307 | 5.0 | 10.0 | 0.00 | 0.00 | 0.00 | 16 | 1016.8 |
| 20260507020145 | 70 | 285 | 6.0 | 14.0 | 0.00 | 0.00 | 0.00 | 16 | 1016.7 |
| 20260507015646 | 70 | 340 | 5.0 | 14.0 | 0.00 | 0.00 | 0.00 | 15 | 1016.6 |
| 20260507014644 | 71 | 293 | 4.0 | 8.0 | 0.00 | 0.00 | 0.00 | 14 | 1016.6 |
| 20260507014144 | 73 | 303 | 4.0 | 10.0 | 0.00 | 0.00 | 0.00 | 14 | 1016.6 |
| 20260507013643 | 73 | 283 | 4.0 | 10.0 | 0.00 | 0.00 | 0.00 | 13 | 1016.5 |
| 20260507013152 | 73 | 310 | 5.0 | 10.0 | 0.00 | 0.00 | 0.00 | 13 | 1016.6 |
| 20260507012653 | 73 | 282 | 5.0 | 11.0 | 0.00 | 0.00 | 0.00 | 13 | 1016.6 |
| 20260507011641 | 74 | 30 | 5.0 | 11.0 | 0.00 | 0.00 | 0.00 | 13 | 1016.6 |
| 20260507011128 | 74 | 323 | 5.0 | 11.0 | 0.00 | 0.00 | 0.00 | 12 | 1016.5 |
| 20260507010621 | 74 | 295 | 3.0 | 11.0 | 0.00 | 0.00 | 0.00 | 12 | 1016.5 |
| 20260507010119 | 74 | 249 | 4.0 | 10.0 | 0.00 | 0.00 | 0.00 | 11 | 1016.5 |
| 20260507005621 | 74 | 339 | 5.0 | 10.0 | 0.00 | 0.00 | 0.00 | 12 | 1016.6 |
| 20260507005126 | 74 | 314 | 4.0 | 10.0 | 0.00 | 0.00 | 0.00 | 11 | 1016.6 |
| 20260507003616 | 75 | 286 | 5.0 | 9.0 | 0.00 | 0.00 | 0.00 | 10 | 1016.6 |
| 20260507003116 | 75 | 329 | 4.0 | 9.0 | 0.00 | 0.00 | 0.00 | 10 | 1016.5 |
| 20260507002616 | 75 | 314 | 4.0 | 9.0 | 0.00 | 0.00 | 0.00 | 10 | 1016.5 |
| 20260507002112 | 75 | 309 | 4.0 | 9.0 | 0.00 | 0.00 | 0.00 | 10 | 1016.4 |
| 20260507001616 | 75 | 247 | 5.0 | 11.0 | 0.00 | 0.00 | 0.00 | 10 | 1016.4 |
| 20260507001114 | 75 | 281 | 4.0 | 11.0 | 0.00 | 0.00 | 0.00 | 10 | 1016.2 |
| 20260507000610 | 75 | 296 | 4.0 | 9.0 | 0.00 | 0.00 | 0.00 | 10 | 1016.4 |
| 20260507000112 | 75 | 35 | 5.0 | 12.0 | 0.00 | 0.00 | 0.00 | 10 | 1016.2 |
| 20260506235111 | 75 | 315 | 5.0 | 14.0 | 0.00 | 0.00 | 0.00 | 11 | 1016.1 |